Regional Weather Roundup
Issued by NWS

Home | Current Version | Previous Version | Graphics & Text | Print | Product List | Glossary On
Versions: 1 2 3 4 5 6 7 8 9 10 11 12 13 14 15 16 17 18 19 20 21 22 23 24 25 26 27 28 29 30 31 32 33 34 35 36 37 38 39 40 41 42 43 44 45 46 47 48 49 50
000
ASUS43 KMKX 250700
RWRWI

WISCONSIN REGIONAL WEATHER ROUNDUP
NATIONAL WEATHER SERVICE MILWAUKEE/SULLIVAN WI
100 AM CST THU DEC 25 2014

NOTE: "FAIR" INDICATES FEW OR NO CLOUDS BELOW 12,000 FEET WITH NO
SIGNIFICANT WEATHER AND/OR OBSTRUCTIONS TO VISIBILITY.

WIZ001-002-006>008-014>016-023>028-250800-
NORTHWEST WISCONSIN

CITY           SKY/WX    TMP DP  RH WIND       PRES   REMARKS
SUPERIOR ARPT  CLOUDY    33  29  86 W10G16    29.51F WCI  25
ASHLAND        CLOUDY    32  30  92 SW10      29.52S WCI  24
HAYWARD        CLOUDY    32  27  81 SW7       29.52F WCI  26
SIREN          CLOUDY    32  29  89 W14       29.55R WCI  22
CUMBERLAND     CLOUDY    32  28  86 SW14      29.54F WCI  22
RICE LAKE      CLOUDY    32  29  87 SW7       29.56F WCI  26
CHETEK         CLOUDY    32  29  89 SW5       29.57S WCI  27
LADYSMITH      CLOUDY    33  29  86 SW6       29.57S WCI  27
EAU CLAIRE     CLOUDY    32  27  81 SW12      29.59S WCI  23
MENOMONIE      CLOUDY    33  29  86 SW13G20   29.60S WCI  23
NEW RICHMOND   CLOUDY    31  30  96 SW14      29.58F WCI  21
OSCEOLA        CLOUDY    32  31  99 SW15      29.60F WCI  21
$$

WIZ003>005-009-010-017-018-250800-
NORTH CENTRAL WISCONSIN

CITY           SKY/WX    TMP DP  RH WIND       PRES   REMARKS
MANITOWISH WTR CLOUDY    29  29 100 SW5       29.48S WCI  24
ARBOR VITAE    CLOUDY    32  30  93 W7        29.50R WCI  25
WOODRUFF       CLOUDY    32  30  93 W7        29.50R WCI  25
RHINELANDER    CLOUDY    30  28  92 W12       29.51R WCI  20
EAGLE RIVER    CLOUDY    30  29  96 W8        29.48S WCI  23
LAND O LAKES   CLOUDY    31  29  94 W6        29.48S WCI  25
PHILLIPS       CLOUDY    30  28  90 SW8       29.52R WCI  23
TOMAHAWK       CLOUDY    30  28  92 W7        29.53R WCI  23
MEDFORD        CLOUDY    30  28  91 W8        29.55R WCI  23
MERRILL        CLOUDY    31  29  91 W9        29.53R WCI  23
$$

WIZ029-030-035-036-043>047-250800-
CENTRAL WISCONSIN

CITY           SKY/WX    TMP DP  RH WIND       PRES   REMARKS
WAUSAU         CLOUDY    31  28  89 W13       29.54R WCI  21
MOSINEE        CLOUDY    30  30 100 W7        29.56R WCI  23
MARSHFIELD     CLOUDY    33  28  81 W8        29.57S WCI  26
STEVENS POINT  CLEAR     30  27  90 W5        29.57R WCI  25
WAUPACA        CLOUDY    36  32  86 W8        29.57S WCI  29
WAUTOMA        NOT AVBL
WISC RAPIDS    CLOUDY    33  27  78 W10       29.61R WCI  25
CAMP DOUGLAS   NOT AVBL
$$

WIZ011>013-019>022-031-037>040-048>050-250800-
NORTHEAST WISCONSIN

CITY           SKY/WX    TMP DP  RH WIND       PRES   REMARKS
ANTIGO         CLOUDY    30  28  94 W12       29.52R WCI  20
SHAWANO        PTCLDY    34  30  85 W6        29.55R WCI  29
OCONTO         CLOUDY    33  32  96 W9        29.52R WCI  25
STURGEON BAY   CLOUDY    34  28  80 W9        29.53R WCI  26
GREEN BAY      CLOUDY    34  30  85 W13       29.56R WCI  25
MANITOWOC      NOT AVBL
APPLETON       CLOUDY    32  32 100 W10       29.56R WCI  24
CLINTONVILLE   CLOUDY    32  30  93 W7        29.56R WCI  26
OSHKOSH        CLOUDY    34  30  85 W8        29.58R WCI  27
$$

WIZ032>034-041-042-053>061-250800-
SOUTHWEST WISCONSIN

CITY           SKY/WX    TMP DP  RH WIND       PRES   REMARKS
LA CROSSE      CLOUDY    35  29  78 W14       29.64R WCI  26
SPARTA         CLOUDY    33  30  87 SW3       29.64R
VIROQUA        CLOUDY    32  32 100 W12G17    29.63R WCI  23
BOSCOBEL       CLOUDY    35  28  75 SW9       29.68R WCI  28
PRAIRIE DU CHI CLOUDY    33  27  79 W10       29.68S WCI  25
PLATTEVILLE    CLOUDY    33  30  88 W14       29.68S WCI  23
$$

WIZ056-057-062-063-064-067-068-250800-
SOUTH CENTRAL WISCONSIN

CITY           SKY/WX    TMP DP  RH WIND       PRES   REMARKS
REEDSBURG      CLOUDY    33  29  85 W9        29.62S WCI  26
BARABOO/DELLS  CLOUDY    33  30  88 W7        29.61S WCI  27
LONE ROCK      NOT AVBL
MINERAL POINT  CLOUDY    34  30  86 W10       29.65S WCI  26
MADISON        CLOUDY    34  29  82 VRB3      29.64R
MIDDLETON      CLOUDY    35  32  90 W10       29.64R WCI  27
WATERTOWN      CLOUDY    34  32  94 W12       29.61R WCI  25
MONROE         CLOUDY    32  32 100 W13       29.66R WCI  22
JANESVILLE     CLOUDY    36  32  87 W13       29.65R WCI  27
$$

WIZ051-052-058>065-066-070>072-250800-
SOUTHEAST WISCONSIN

CITY           SKY/WX    TMP DP  RH WIND       PRES   REMARKS
MILWAUKEE      CLOUDY    36  29  75 W10       29.61R WCI  28
WAUKESHA       CLOUDY    32  32 100 W13       29.61R WCI  22
MILWAUKEE/TIMM CLOUDY    34  30  86 W15       29.60R WCI  24
RACINE         CLOUDY    36  30  79 W10       29.63R WCI  28
BURLINGTON     CLOUDY    33  31  92 W10G16    29.63R WCI  25
KENOSHA        CLOUDY    36  31  82 W14       29.63R WCI  27
FOND DU LAC    MOCLDY    34  30  85 W12G22    29.59R WCI  25
SHEBOYGAN      CLOUDY    34  30  85 W14       29.57R WCI  25
WEST BEND      CLOUDY    34  30  86 W15       29.58R WCI  24
JUNEAU         CLOUDY    33  31  92 W9        29.61R WCI  25
$$

LSZ147-162-250800-
LAKE SUPERIOR

STATION/POSITION TIME  TEMP    WIND        PRES    WAVE
                       AIR SEA DIR/SP/G            HT/PER
                 (UTC) (F)     (DEG/KT/KT) (MB)    (FT/S)
DEVILS ISLAND    0600   34     240/ 15/ 17  999.4S
PORT WING        0600   34     230/  6/ 10 1000.3R
SAXON HARBOR     0600   34      CALM  /  3  999.7F
$$

LMZ867-665-643>646-250800-
LAKE MICHIGAN

STATION/POSITION TIME  TEMP    WIND        PRES    WAVE
                       AIR SEA DIR/SP/G            HT/PER
                 (UTC) (F)     (DEG/KT/KT) (MB)    (FT/S)
CHAMBERS ISLAND  0600   33     230/  7/ 13  999.0R
NORTHPORT PIER   0600   33     270/  4/ 12  998.0R
SISTER BAY       0613          290/ 16/ 18   N/A
ALGOMA LAKESHORE 0615          300/  7/ 10   N/A
KEWAUNEE LAKESHO 0600   34     290/  9/ 14  998.7R
SHEBOYGAN LAKESH 0600   35 37  280/ 13/ 18 1001.2R
PORT WASHINGTON  0620   36     280/ 10/ 19 1002.4R
MILWAUKEE LAKESH 0600   36     270/ 12/ 16   N/A
KENOSHA   LAKESH 0600   36     270/ 12/ 17 1002.7R
$$

TC  - TEMPERATURE IN CELSIUS
VSB - VISIBILITY IN STATUTE MILES
WCI - WIND CHILL INDEX
HX  - HEAT INDEX



USA.gov is the U.S. government's official web portal to all federal, state and local government web resources and services.